Gadsden, AL

8:13 AM CDT on July 20, 2017 (GMT -0500)
Gadsden Municipal

Weather History for KGAD - November, 2010

Change the Weather History Date:

Monday, November 15, 2010

  Actual Average Record
Temperature  
Mean Temperature 48 °F -  
Max Temperature 51 °F 60 °F 78 °F (1931)
Min Temperature 46 °F 38 °F 21 °F (1940)
Degree Days  
Heating Degree Days 16    
Moisture  
Dew Point 47 °F    
Average Humidity 91    
Maximum Humidity 94    
Minimum Humidity 82    
Precipitation  
Precipitation 0.72 in - - ()
Sea Level Pressure  
Sea Level Pressure 29.92 in    
Wind  
Wind Speed 3 mph (NNE)    
Max Wind Speed 12 mph    
Max Gust Speed -    
Visibility 7 miles    
Events      
Averages and records for this station are not official NWS values.
T = Trace of Precipitation, MM = Missing Value Source: NWS Daily Summary

Daily Weather History Graph

Daily Weather History Graph

Search for Another Location

Airport or City:

Trip Planner

Search our weather history database for the weather conditions in past years. The results will help you decide how hot, cold, wet, or windy it might be!

Date:

Astronomy

Nov. 15, 2010 Rise Set
Actual Time 6:16 AM CST 4:40 PM CST
Civil Twilight 5:50 AM CST 5:07 PM CST
Nautical Twilight 5:20 AM CST 5:37 PM CST
Astronomical Twilight 4:50 AM CST 6:07 PM CST
Moon 1:09 PM CST (11/15) 12:36 AM CST (11/15)
Length of Visible Light 11h 17m
Length of Day
10h 24m
Waxing Gibbous, 69% of the Moon is Illuminated
Nov 15
Waxing Gibbous
Nov 21
Full
Nov 28
Last Quarter
Dec 5
New
Dec 13
First Quarter

Hourly Weather History & Observations

Time (CST) Temp. Windchill Dew Point Humidity Pressure Visibility Wind Dir Wind Speed Gust Speed Precip Events Conditions
12:15 AM 48.2 °F - 46.4 °F 93% 29.98 in 10.0 mi NNW 6.9 mph - N/A   Scattered Clouds
12:35 AM 48.2 °F - 44.6 °F 87% 29.98 in 10.0 mi NNW 4.6 mph - N/A   Partly Cloudy
12:55 AM 48.2 °F - 44.6 °F 87% 29.98 in 10.0 mi Calm Calm - N/A   Scattered Clouds
1:15 AM 48.2 °F - 46.4 °F 93% 29.97 in 10.0 mi Calm Calm - N/A   Mostly Cloudy
1:35 AM 48.2 °F - 44.6 °F 87% 29.96 in 9.0 mi Calm Calm - N/A   Overcast
1:55 AM 48.2 °F - 44.6 °F 87% 29.95 in 8.0 mi Calm Calm - N/A   Mostly Cloudy
2:15 AM 46.4 °F - 44.6 °F 93% 29.95 in 7.0 mi Calm Calm - N/A   Mostly Cloudy
2:35 AM 46.4 °F - 44.6 °F 93% 29.95 in 8.0 mi Calm Calm - N/A   Overcast
2:55 AM 46.4 °F - 44.6 °F 93% 29.94 in 10.0 mi Calm Calm - N/A   Overcast
3:15 AM 46.4 °F - 44.6 °F 93% 29.94 in 10.0 mi Calm Calm - N/A   Overcast
3:35 AM 46.4 °F 45.2 °F 44.6 °F 93% 29.94 in 10.0 mi NNW 3.5 mph - N/A   Overcast
3:55 AM 46.4 °F - 44.6 °F 93% 29.93 in 10.0 mi Calm Calm - N/A   Overcast
4:15 AM 46.4 °F 45.2 °F 44.6 °F 93% 29.93 in 10.0 mi NNW 3.5 mph - N/A   Overcast
4:35 AM 46.4 °F 45.2 °F 44.6 °F 93% 29.93 in 10.0 mi NNW 3.5 mph - N/A   Overcast
4:55 AM 46.4 °F 45.2 °F 44.6 °F 93% 29.92 in 10.0 mi NNW 3.5 mph - N/A   Overcast
5:15 AM 46.4 °F - 42.8 °F 87% 29.93 in 10.0 mi Calm Calm - N/A   Overcast
5:35 AM 48.2 °F - 42.8 °F 82% 29.93 in 10.0 mi Calm Calm - N/A   Overcast
5:55 AM 48.2 °F - 42.8 °F 82% 29.93 in 10.0 mi NNW 3.5 mph - N/A   Overcast
6:15 AM 48.2 °F - 42.8 °F 82% 29.94 in 10.0 mi NW 3.5 mph - N/A   Overcast
6:35 AM 48.2 °F - 42.8 °F 82% 29.96 in 10.0 mi West 4.6 mph - N/A   Overcast
6:55 AM 46.4 °F - 42.8 °F 87% 29.95 in 10.0 mi Calm Calm - N/A   Overcast
7:15 AM 48.2 °F - 44.6 °F 87% 29.95 in 10.0 mi NNW 4.6 mph - N/A   Overcast
7:35 AM 48.2 °F - 44.6 °F 87% 29.95 in 7.0 mi NNE 3.5 mph - N/A   Overcast
7:55 AM 48.2 °F - 44.6 °F 87% 29.95 in 8.0 mi Calm Calm - N/A   Overcast
8:15 AM 48.2 °F - 44.6 °F 87% 29.95 in 6.0 mi Calm Calm - N/A   Overcast
8:35 AM 48.2 °F - 44.6 °F 87% 29.96 in 8.0 mi Calm Calm - N/A   Mostly Cloudy
8:55 AM 48.2 °F - 44.6 °F 87% 29.96 in 6.0 mi Calm Calm - 0.01 in   Mostly Cloudy
9:15 AM 48.2 °F - 44.6 °F 87% 29.98 in 5.0 mi Calm Calm - 0.01 in   Overcast
9:35 AM 48.2 °F - 44.6 °F 87% 29.98 in 5.0 mi Calm Calm - 0.04 in   Overcast
9:55 AM 48.2 °F - 46.4 °F 93% 29.98 in 5.0 mi Calm Calm - 0.05 in   Overcast
10:15 AM 48.2 °F - 46.4 °F 93% 29.98 in 3.0 mi Calm Calm - 0.02 in   Overcast
10:35 AM 48.2 °F - 46.4 °F 93% 29.98 in 4.0 mi Calm Calm - 0.05 in   Overcast
10:55 AM 48.2 °F - 46.4 °F 93% 29.97 in 4.0 mi Calm Calm - 0.08 in   Overcast
11:15 AM 48.2 °F - 46.4 °F 93% 29.96 in 4.0 mi Calm Calm - 0.03 in   Overcast
11:35 AM 50.0 °F - 46.4 °F 87% 29.95 in 4.0 mi Calm Calm - 0.05 in   Overcast
11:55 AM 50.0 °F - 48.2 °F 94% 29.93 in 3.0 mi ENE 4.6 mph - 0.07 in   Overcast
12:15 PM 51.8 °F - 48.2 °F 88% 29.92 in 3.0 mi ENE 3.5 mph - 0.02 in   Overcast
12:35 PM 51.8 °F - 50.0 °F 94% 29.90 in 3.0 mi ENE 4.6 mph - 0.05 in   Overcast
12:55 PM 51.8 °F - 50.0 °F 94% 29.87 in 4.0 mi ENE 11.5 mph - 0.05 in   Overcast
1:15 PM 51.8 °F - 50.0 °F 94% 29.87 in 5.0 mi East 6.9 mph - N/A   Overcast
1:35 PM 51.8 °F - 50.0 °F 94% 29.85 in 5.0 mi NE 8.1 mph - 0.01 in   Overcast
2:15 PM 51.8 °F - 50.0 °F 94% 29.84 in 6.0 mi NNE 8.1 mph - N/A   Overcast
2:35 PM 51.8 °F - 50.0 °F 94% 29.84 in 5.0 mi NNE 8.1 mph - 0.02 in   Overcast
2:55 PM 51.8 °F - 50.0 °F 94% 29.84 in 4.0 mi North 6.9 mph - 0.07 in   Overcast
3:15 PM 51.8 °F - 50.0 °F 94% 29.84 in 5.0 mi North 5.8 mph - 0.04 in   Overcast
3:35 PM 51.8 °F - 50.0 °F 94% 29.85 in 5.0 mi NNW 5.8 mph - 0.13 in   Overcast
3:55 PM 51.8 °F - 50.0 °F 94% 29.84 in 5.0 mi NNE 6.9 mph - 0.19 in   Overcast
4:15 PM 51.8 °F - 50.0 °F 94% 29.83 in 3.0 mi NE 9.2 mph - 0.04 in   Overcast
4:35 PM 51.8 °F - 50.0 °F 94% 29.85 in 5.0 mi NNE 6.9 mph - 0.11 in   Mostly Cloudy
4:55 PM 51.8 °F - 50.0 °F 94% 29.84 in 5.0 mi NNE 8.1 mph - 0.13 in   Overcast
5:15 PM 51.8 °F - 50.0 °F 94% 29.83 in 4.0 mi NE 9.2 mph - 0.03 in   Overcast
5:35 PM 51.8 °F - 50.0 °F 94% 29.83 in 8.0 mi NE 8.1 mph - 0.03 in   Overcast
5:55 PM 51.8 °F - 50.0 °F 94% 29.83 in 5.0 mi NE 8.1 mph - 0.05 in   Mostly Cloudy
6:15 PM 51.8 °F - 50.0 °F 94% 29.82 in 3.0 mi NE 5.8 mph - 0.01 in   Overcast
6:35 PM 51.8 °F - 50.0 °F 94% 29.83 in 5.0 mi ENE 4.6 mph - 0.01 in   Overcast
6:55 PM 51.8 °F - 50.0 °F 94% 29.83 in 8.0 mi ENE 9.2 mph - 0.02 in   Overcast
7:15 PM 51.8 °F - 50.0 °F 94% 29.82 in 7.0 mi ENE 8.1 mph - N/A   Overcast
7:35 PM 51.8 °F - 50.0 °F 94% 29.83 in 6.0 mi ENE 8.1 mph - N/A   Overcast
7:55 PM 51.8 °F - 50.0 °F 94% 29.82 in 5.0 mi ENE 9.2 mph - N/A   Overcast
8:15 PM 51.8 °F - 50.0 °F 94% 29.81 in 9.0 mi NE 8.1 mph - N/A   Overcast
8:35 PM 51.8 °F - 50.0 °F 94% 29.80 in 9.0 mi NE 6.9 mph - N/A   Overcast
8:55 PM 51.8 °F - 50.0 °F 94% 29.80 in 3.0 mi NE 8.1 mph - 0.01 in   Overcast
9:15 PM 51.8 °F - 50.0 °F 94% 29.80 in 2.5 mi ENE 5.8 mph - N/A   Overcast
9:35 PM 51.8 °F - 50.0 °F 94% 29.79 in 2.5 mi ENE 8.1 mph - 0.01 in   Overcast
9:55 PM 51.8 °F - 50.0 °F 94% 29.79 in 3.0 mi ENE 8.1 mph - 0.01 in   Overcast
10:15 PM 51.8 °F - 50.0 °F 94% 29.79 in 2.5 mi ENE 8.1 mph - N/A   Overcast
10:35 PM 51.8 °F - 50.0 °F 94% 29.78 in 2.5 mi ENE 5.8 mph - 0.03 in   Overcast
10:55 PM 51.8 °F - 50.0 °F 94% 29.77 in 4.0 mi ENE 6.9 mph - 0.06 in   Overcast
11:15 PM 51.8 °F - 50.0 °F 94% 29.76 in 5.0 mi ENE 8.1 mph - 0.01 in   Overcast
11:35 PM 51.8 °F - 50.0 °F 94% 29.75 in 5.0 mi NE 3.5 mph - 0.05 in   Overcast
11:55 PM 51.8 °F - 51.8 °F 100% 29.75 in 10.0 mi ENE 5.8 mph - 0.06 in   Overcast